VK2RZ Weather Reports


Display with metric or nautical units.
time (UTC)temp
F
wind
direction
speed
MPH
gust
MPH
rain 1hr
in
rain 24hr
in
rain mn
in
humidity
%
barometer
mb
20260902104430 69 275 1.0 3.0 0.00 0.00 0.00 5 1014.9
20260902103429 69 276 2.0 4.0 0.00 0.00 0.00 5 1014.9
20260902102429 69 0 0.0 2.0 0.00 0.00 0.00 5 1014.7
20260902101429 70 276 1.0 2.0 0.00 0.00 0.00 5 1014.6
20260902100429 70 276 1.0 3.0 0.00 0.00 0.00 4 1014.6
20260902095430 71 277 2.0 4.0 0.00 0.00 0.00 4 1014.6
20260902094428 72 278 2.0 7.0 0.00 0.00 0.00 4 1014.5
20260902093428 72 249 5.0 6.0 0.00 0.00 0.00 4 1014.5
20260902092428 72 272 4.0 7.0 0.00 0.00 0.00 4 1014.4
20260902091428 71 255 4.0 7.0 0.00 0.00 0.00 4 1014.3
20260902090431 71 268 2.0 4.0 0.00 0.00 0.00 4 1014.2
20260902085427 71 273 1.0 4.0 0.00 0.00 0.00 4 1014.2
20260902084427 71 0 0.0 4.0 0.00 0.00 0.00 4 1014.2
20260902082427 72 285 1.0 6.0 0.00 0.00 0.00 4 1013.9
20260902080426 73 278 2.0 4.0 0.00 0.00 0.00 4 1013.7
20260902075427 73 0 0.0 7.0 0.00 0.00 0.00 4 1013.5
20260902074426 74 258 1.0 4.0 0.00 0.00 0.00 4 1013.4
20260902073426 74 304 1.0 3.0 0.00 0.00 0.00 4 1013.3
20260902072431 75 0 0.0 4.0 0.00 0.00 0.00 4 1013.1
20260902071425 76 281 3.0 6.0 0.00 0.00 0.00 4 1013.0
20260902070429 77 257 3.0 11.0 0.00 0.00 0.00 4 1013.0
20260902065431 77 276 1.0 10.0 0.00 0.00 0.00 3 1012.8
20260902063428 78 251 3.0 11.0 0.00 0.00 0.00 3 1012.7
20260902062429 78 272 8.0 13.0 0.00 0.00 0.00 3 1012.6
20260902060425 79 241 5.0 10.0 0.00 0.00 0.00 3 1012.7
20260902055431 80 207 4.0 13.0 0.00 0.00 0.00 3 1012.5
20260902054425 80 273 3.0 11.0 0.00 0.00 0.00 3 1012.5
20260902053425 80 245 8.0 10.0 0.00 0.00 0.00 3 1012.6
20260902052426 80 291 1.0 13.0 0.00 0.00 0.00 3 1012.6
20260902051431 81 202 6.0 12.0 0.00 0.00 0.00 3 1012.6
20260902050425 81 268 4.0 10.0 0.00 0.00 0.00 3 1012.7
20260902045432 80 289 11.0 15.0 0.00 0.00 0.00 3 1012.8
20260902044428 81 306 4.0 10.0 0.00 0.00 0.00 3 1012.8
20260902043428 81 243 9.0 13.0 0.00 0.00 0.00 3 1012.6
20260902042426 81 197 3.0 9.0 0.00 0.00 0.00 3 1012.6
20260902040428 80 229 4.0 8.0 0.00 0.00 0.00 3 1012.8
20260902035432 79 255 3.0 7.0 0.00 0.00 0.00 4 1012.9
20260902034431 77 263 1.0 10.0 0.00 0.00 0.00 4 1013.0
20260902033429 79 252 4.0 10.0 0.00 0.00 0.00 4 1013.1
20260902032425 80 241 3.0 13.0 0.00 0.00 0.00 4 1013.1
20260902031425 79 208 5.0 10.0 0.00 0.00 0.00 4 1013.4
20260902030425 80 0 0.0 9.0 0.00 0.00 0.00 4 1013.5
20260902025425 79 260 7.0 13.0 0.00 0.00 0.00 4 1013.7
20260902024426 80 234 2.0 11.0 0.00 0.00 0.00 4 1013.8
20260902023425 79 285 10.0 13.0 0.00 0.00 0.00 4 1014.1
20260902022432 80 175 3.0 6.0 0.00 0.00 0.00 4 1014.2
20260902021425 79 275 1.0 14.0 0.00 0.00 0.00 4 1014.2
20260902020427 79 233 6.0 10.0 0.00 0.00 0.00 4 1014.4
20260902015427 78 277 9.0 10.0 0.00 0.00 0.00 4 1014.7
20260902014426 77 225 5.0 17.0 0.00 0.00 0.00 4 1014.8
20260902013425 78 294 18.0 25.0 0.00 0.00 0.00 4 1015.2
20260902012426 77 268 3.0 10.0 0.00 0.00 0.00 4 1015.2
20260902011425 77 288 2.0 7.0 0.00 0.00 0.00 4 1015.2
20260902010425 76 229 3.0 16.0 0.00 0.00 0.00 4 1015.2
20260902005425 75 270 9.0 11.0 0.00 0.00 0.00 4 1015.7
20260902003426 75 202 1.0 12.0 0.00 0.00 0.00 4 1015.8
20260902002425 75 279 4.0 15.0 0.00 0.00 0.00 4 1015.9
20260902001425 74 175 4.0 9.0 0.00 0.00 0.00 5 1016.2
20260902000429 73 106 4.0 14.0 0.00 0.00 0.00 5 1016.2
20260901235424 72 241 3.0 16.0 0.00 0.00 0.00 5 1016.1
20260901234424 71 232 2.0 8.0 0.00 0.00 0.00 5 1016.2
20260901233428 69 113 4.0 7.0 0.00 0.00 0.00 5 1016.4
20260901232427 68 59 2.0 5.0 0.00 0.00 0.00 6 1016.7
20260901231426 67 225 2.0 6.0 0.00 0.00 0.00 6 1017.0
20260901230423 66 124 1.0 5.0 0.00 0.00 0.00 6 1017.1
20260901225426 66 113 1.0 2.0 0.00 0.00 0.00 6 1017.2
20260901224428 66 136 3.0 5.0 0.00 0.00 0.00 6 1017.2
20260901223426 65 166 1.0 6.0 0.00 0.00 0.00 6 1017.2
20260901221423 65 122 3.0 4.0 0.00 0.00 0.00 6 1017.3
20260901220426 64 120 4.0 5.0 0.00 0.00 0.00 6 1017.2
20260901215422 64 122 2.0 5.0 0.00 0.00 0.00 6 1017.1
20260901214424 64 167 1.0 6.0 0.00 0.00 0.00 6 1017.1
20260901213422 64 185 1.0 4.0 0.00 0.00 0.00 6 1017.4
20260901212422 63 210 3.0 4.0 0.00 0.00 0.00 6 1017.3
20260901211422 63 211 1.0 3.0 0.00 0.00 0.00 6 1017.3
20260901210426 63 211 1.0 3.0 0.00 0.00 0.00 6 1017.2
20260901204426 65 210 5.0 5.0 0.00 0.00 0.00 5 1017.4
20260901203426 65 231 3.0 5.0 0.00 0.00 0.00 5 1017.4
20260901202424 64 213 1.0 10.0 0.00 0.00 0.00 6 1017.4
20260901201422 62 185 2.0 4.0 0.00 0.00 0.00 6 1017.0
20260901200423 61 169 2.0 3.0 0.00 0.00 0.00 6 1016.7
20260901194422 62 185 1.0 3.0 0.00 0.00 0.00 6 1016.6
20260901193422 61 0 0.0 0.0 0.00 0.00 0.00 6 1016.6
20260901192422 61 0 0.0 0.0 0.00 0.00 0.00 6 1016.4
20260901191422 61 0 0.0 2.0 0.00 0.00 0.00 6 1016.6
20260901185422 61 185 3.0 5.0 0.00 0.00 0.00 6 1015.9
20260901184422 60 185 2.0 5.0 0.00 0.00 0.00 6 1016.0
20260901183422 60 0 0.0 3.0 0.00 0.00 0.00 6 1016.0
20260901182423 59 189 1.0 3.0 0.00 0.00 0.00 7 1015.9
20260901181422 58 0 0.0 1.0 0.00 0.00 0.00 7 1015.9
20260901180423 59 0 0.0 0.0 0.00 0.00 0.00 7 1015.8
20260901175422 59 189 1.0 4.0 0.00 0.00 0.00 7 1016.0
20260901174422 59 189 1.0 3.0 0.00 0.00 0.00 6 1015.9
20260901173422 59 0 0.0 0.0 0.00 0.00 0.00 6 1016.1
20260901172422 59 0 0.0 0.0 0.00 0.00 0.00 6 1016.2
20260901170422 58 0 0.0 0.0 0.00 0.00 0.00 6 1016.4
20260901165422 60 0 0.0 3.0 0.00 0.00 0.00 6 1016.4
20260901164422 60 189 2.0 3.0 0.00 0.00 0.00 6 1016.8
20260901162422 61 0 0.0 0.0 0.00 0.00 0.00 6 1016.9
20260901161422 61 189 2.0 4.0 0.00 0.00 0.00 6 1016.8
20260901160421 61 0 0.0 3.0 0.00 0.00 0.00 6 1016.9
20260901155420 61 0 0.0 3.0 0.00 0.00 0.00 6 1017.0
20260901153420 60 189 1.0 7.0 0.00 0.00 0.00 6 1017.0
20260901152420 60 199 1.0 5.0 0.00 0.00 0.00 6 1017.1
20260901151420 60 216 2.0 4.0 0.00 0.00 0.00 6 1017.2
20260901150421 60 253 2.0 4.0 0.00 0.00 0.00 6 1017.4
20260901145420 60 255 1.0 3.0 0.00 0.00 0.00 6 1017.5
20260901144420 61 256 2.0 3.0 0.00 0.00 0.00 6 1017.7
20260901143420 60 0 0.0 0.0 0.00 0.00 0.00 6 1017.9
20260901142420 61 0 0.0 0.0 0.00 0.00 0.00 6 1018.0
20260901141420 61 0 0.0 0.0 0.00 0.00 0.00 6 1018.0
20260901140420 62 0 0.0 2.0 0.00 0.00 0.00 6 1018.2
20260901135420 61 0 0.0 2.0 0.00 0.00 0.00 6 1018.3
20260901134419 60 0 0.0 0.0 0.00 0.00 0.00 6 1018.4
20260901133419 61 0 0.0 0.0 0.00 0.00 0.00 6 1018.3
20260901132418 61 0 0.0 0.0 0.00 0.00 0.00 6 1018.3
20260901131418 61 0 0.0 0.0 0.00 0.00 0.00 6 1018.5
20260901130418 61 0 0.0 2.0 0.00 0.00 0.00 6 1018.3
20260901125418 62 0 0.0 3.0 0.00 0.00 0.00 6 1018.4
20260901124418 61 0 0.0 2.0 0.00 0.00 0.00 6 1018.5
20260901123418 62 0 0.0 2.0 0.00 0.00 0.00 6 1018.5
20260901122418 62 262 1.0 3.0 0.00 0.00 0.00 6 1018.5
20260901120418 62 285 1.0 3.0 0.00 0.00 0.00 6 1018.9
20260901115419 62 0 0.0 2.0 0.00 0.00 0.00 6 1019.2
20260901114419 61 0 0.0 2.0 0.00 0.00 0.00 6 1019.4
20260901113418 62 285 2.0 2.0 0.00 0.00 0.00 5 1019.6
20260901112418 64 286 2.0 3.0 0.00 0.00 0.00 5 1019.8
20260901110418 64 0 0.0 0.0 0.00 0.00 0.00 5 1020.0
20260901105418 63 0 0.0 0.0 0.00 0.00 0.00 5 1020.0